Location: Keppel Henge
(44.7900°N, 80.9447°W)
Time: 00:29:21
(UTC-04:00)

Envisat - Pass Details

Date: 10 October 2017
Orbit: 764 x 766 km, 98.2° (Epoch: 21 October)

Event Time Altitude Azimuth Distance (km) Brightness Sun altitude
Exits shadow 21:07:41 73° 160° (SSE) 804 2.9 -25.5°
Maximum altitude 21:08:13 88° 75° (ENE) 772 2.9 -25.6°
Drops below altitude 10° 21:13:20 10° 347° (NNW) 2,312 5.8 -26.5°
Sets 21:15:38 0° 347° (NNW) 3,242 6.6 -26.9°
